Погода в Нисэкоане

Япония     42°48′16″N   140°41′58″E
темп.,
°C
ветер,
м/с
пор.,
м/с
влажн.,
%
обл.,
%
осадки,
мм/ч
давл.,
гПа
погр.,
м
7 мая, пт
пт700:00+6ююв22800 0.0 101529
03:00+6юв2278100 0.0 101416
06:00+8ююв237399 0.0 101497
09:00+15ю464727 0.0 1012636
12:00+18ююз473795 0.0 1009906
15:00+17ююз3538100 0.0 1006634
18:00+11ю2268100 0.0 100637
21:00+9ююв2265100 0.0 100532
8 мая, сб
сб800:00+9ююв2269100 0.0 100235
03:00+8ююв2382100 0.2 100159
06:00+8ю239621 1.5 1001160
09:00+12юз487539 1.6 10021057
12:00+16юз712452 0.1 10011854
15:00+15з59435 0.1 10021612
18:00+11ю22632 0.0 100444
21:00+7юв22755 0.0 100515
9 мая, вс
вс900:00+7юв22867 0.0 100515
03:00+7вюв228265 0.0 100221
06:00+9вюв257811 0.0 1001130
09:00+10ююв3986100 2.1 999817
12:00+8вюв2492100 13.6 998331
15:00+10ююз488698 14.2 998982
18:00+6ююз598987 0.3 1000734
21:00+6юз4989100 0.4 1001776
10 мая, пн
пн1000:00+6юз4892100 0.1 1001570
03:00+5з3891100 0.6 1002899
06:00+6з399199 0.3 10031000
09:00+7з388571 0.8 1004866
12:00+10зсз5106860 0.3 10041349
15:00+6зсз488490 0.6 1005881
18:00+4сз3694100 0.1 1007692
21:00+4зсз2394100 0.2 1009436
11 мая, вт
вт1100:00+5сз2597100 0.1 1010707
03:00+4зсз2597100 0.2 1011504
06:00+5сз2497100 0.1 1013342
09:00+7ссз238698 0.1 1013609
12:00+9ссз237498 0.1 1013968
15:00+11ссз346364 0.3 10131236
18:00+8ссз23785 0.0 1014140
21:00+3ссв229424 0.0 101734